Timeline UpdatesTrip UpdatesNews PostsPvt PostsTravel TipsAdmin PostsConv PostsFollowed PostsChat RequestsBlog PostsPNR Posts

Disclaimer
Search
 
 
Thu Aug 21, 2014 17:36:19 ISTHomeTrainsΣChainsAtlasPNRForumGalleryNewsFAQTripsMembersLoginFeedback
No Recent News for this Train
Other Trains in the News **new
Latest...
..
Mon Jun 09, 2014 (10:25AM)
⇐ Return Journey: Train# 14056

14055/Brahmaputra Mail

Oct 02 2013 (2:14PM)
Change Departure Station:
Change Arrival Station:
Post a Train Travel TipPost a Train Travel Tip **new
Post a Comment/Question/Picture/VideoPost a Comment/Question/Picture/Video
Inaugural Run
Tue Oct 01, 1974
Pantry/Catering
✓ Pantry Car Avbl
✓ Catering Avbl
RSA - Rake Sharing
No RSA
Rake/Coach Composition
LOCO-SLR-GS-GS-GS-B3-B2-B1-A1-PC-S11-S10-S9-S8-S7-S6-S5-S4-S3-S2-S1-GS-GS-GS-SLR
Loco
SGUJ WDP-4/4B/4D (DBRG-KIUL); GZB WAP-4 (KIUL-DLI)
News    PNR    Forum    Time-Table    Availability    Fare Chart    Map    Arr/Dep History    Trips    Gallery    ΣChains    X/O    Timeline    
Travel Time: 44h 43m    45 halts    Distance: 2132 km    Avg Speed: 47 km/hr
Type: Mail/Express
Zone: NR/Northern
Departs @ 09:22
Platform# ???
SMTWTFS
Chaparmukh Junction/CPK 
Arrives @ 06:05 +2 nights
Platform# 5
SMTWTFS
Old Delhi Junction/DLI 

45 halts. 371 intermediate Stations between Chaparmukh Junction and Old Delhi Junction

Show ALL intermediate Stations  Show Old Time-Table

#CodeStation NameX/OArrivesAvgDepartsAvgHaltPFDay#KmSpeedElevZoneAddress
1DBRGDibrugarh (4)  -23:10-11-466.039108mNFRDibrugarh 786003, Assam
2NTSKNew Tinsukia Junction (3)  00:15-00:25-10m--2-424.073124mNFRDist: Tinsukia, Assam
3BOJBhojoX  01:21-01:26-5m--2-355.470107mNFRBhojo Railway Station, Assam
4SLGRSimaluguri Junction (3)X  01:55-02:00-5m22-321.54399mNFRSimaluguri, Assam
5MXNMariani Junction (4)  03:15-03:25-10m12-267.446117mNFRDist. Jorhat Pin-785634, Assam
6FKGFurkating Junction (2)  04:15-04:17-2m--2-229.378 NFRK B Rd, Assam
7BXJBokajan (2)  05:00-05:02-2m--2-173.437138mNFRBokajan, Assam
8DMVDimapur (3)  05:25-05:35-10m12-159.164153mNFRDimapur, Nagaland
9DPUDiphu (2)  06:10-06:12-2m--2-121.933180mNFRDiphu, Assam
10LMGLumding Junction (5)X  07:10-07:30-20m22-89.757142mNFRLumding, Assam
11LKALankaX  08:03-08:05-2m--2-58.54989mNFRLanka, Assam
12HJIHojai (2)X  08:22-08:24-2m--2-44.64378mNFRHojai Rd. Ph:- 03674-252136., Assam
13JMKJamunamukh  08:47-08:49-2m--2-28.16570mNFRNational Highway 36, Assam
14KWMKampurX  08:59-09:01-2m--2-17.26568mNFRKampur, Assam
15CPK»Chaparmukh Junction (3)»X  09:17-09:22-5m--20.07365mNFRChaparmukh. Dist. Nagaon. Changing point for HBN/SHTT, Assam
16JIDJagi Road (2)  09:50-09:52-2m--234.05662mNFRJagiroad, Assam
17DGUDigaruX  10:17-10:19-2m--257.52858mNFRDigaru, Assam
18GHYGuwahati (7)  11:30-11:45-15m1291.02860mNFRGuwahati, Assam
19KYQKamakhya Junction (4)  12:00-12:05-5m--298.03855mNFRDist - KAMRUP, Assam
20RNYRangiya Junction (5)  13:10-13:20-10m--2138.76258mNFRRangia, Assam
21NLVNalbari  13:36-13:38-2m--2155.27654mNFRNalbari, Assam
22BPRDBarpeta RoadX  14:16-14:21-5m--2203.55849mNFRHowli, Assam
23BJFBijniX  14:49-14:51-2m--2230.52254mNFRDist: Chirang, Assam
24BNGNBongaigaon (3)X  15:32-15:34-2m--2245.2760mNFRBongaigaon, Assam
25NBQNew Bongaigaon Junction (4)X  15:55-16:05-10m--2247.66058mNFR783381., Assam
26KOJKokrajhar (3)  16:33-16:35-2m12275.55946mNFR03661-270618, Assam
27FKMFakiragram Junction (4)  16:45-16:47-2m12285.47844mNFR03661-283454, Assam
28GOGHGossaigaon Hat (3)X  17:05-17:07-2m12308.672 NFRKokrajhar, Assam
29NOQNew Alipurduar (2)X  17:45-17:50-5m--2354.33248mNFRDist - Alipurduar - 736121, West Bengal
30NCBNew Cooch Behar Junction (5)X  18:25-18:30-5m22372.97647mNFRDist : Cooch Behar-736101, West Bengal
31FLKFalakata (3)XO  19:00-19:02-2m--2410.72067mNFRDist - Alipurduar, West Bengal
32DQGDhupguri (2)X  20:10-20:15-5m--2433.13075mNFRDist - Jalpaiguri, West Bengal
33JPEJalpaiguri Road (2)  21:18-21:20-2m--2464.93789mNFRdist - Jalpaiguri 735102, West Bengal
34NJPNew Jalpaiguri Junction (8)  22:15-22:35-20m32498.479114mNFRCity-Siliguri . Dist-Jalpaiguri, West Bengal
35KNEKishanGanj (3)  23:41-23:46-5m--2585.85652mNFRKishanganj, Bihar
36BOEBarsoi Junction (3)X  00:48-00:50-2m--3643.43437mNFRdist- katihar, Bihar
37MLDTMalda Town (5)X  03:30-03:50-20m33733.96630mERDist - Malda, West Bengal
38NFKNew Farakka Junction (3)  04:22-04:24-2m13769.03032mERDist - Murshidabad, West Bengal
39BHWBarharwa Junction (3)  05:00-05:02-2m13787.05936mERBarharwa, Jharkhand
40SBGSahibganj Junction (3)  05:57-06:05-8m13841.46038mERSahibganj, Jharkhand
41CLGKahalgaon (2)  06:49-06:50-1m23885.35244mERBhagalpur, Bihar
42BGPBhagalpur Junction (6)X  07:25-07:37-12m13915.47549mERBhagalpur, Bihar
43SGGSultanGanj (3)  07:57-07:58-1m--3940.33142mERSultanganj, Bihar
44JMPJamalpur Junction (4)X  08:55-09:15-20m13969.46959mERJamalpur 06344-243101, Bihar
45AHAAbhaipur (2)  09:34-09:35-1m--3991.22152mERAbhaipur, Bihar
46KIULKiul Junction (5)X10:42-11:02-20m--31014.26253mECRDist. Lakhisarai, Bihar
47MKAMokama Junction (4)  11:35-11:37-2m--31048.510648mECRPatna, Bihar
48PNCPatna Saheb (3)  12:22-12:24-2m--31127.81459mECRPatna, Bihar
49PNBEPatna Junction (10)X  13:05-13:15-10m231137.76057mECRPatna 800001, Bihar
50ARAAra Junction (3)X  14:04-14:06-2m531186.78463mECRarrah( 06182-233411), Bihar
51BXRBuxar (3)  14:55-14:57-2m--31255.28067mECRBuxar, Bihar
52MGSMughal Sarai Junction (8)X  16:47-16:57-10m431349.16183mECRMughalsarai 232101, Uttar Pradesh
53MZPMirzapur (3)X  17:59-18:00-1m331412.37288mNCRMirzapur, Uttar Pradesh
54ALDAllahabad Junction (10)O  19:15-19:25-10m131501.880100mNCRAllahabad 211003, Uttar Pradesh
55CNBKanpur Central (10)X  21:50-21:55-5m231696.171128mNCRKANPUR-208 001, Uttar Pradesh
56SKBShikohabad Junction (4)XO  00:39-00:40-1m--41890.931166mNCRDistrict Firozabad, Uttar Pradesh
57TDLTundla Junction (5)X  01:50-01:55-5m--41927.385167mNCRDistt.Firozabad, Uttar Pradesh
58ALJNAligarh Junction (4)  02:50-02:55-5m342005.490192mNCRAligarh, Uttar Pradesh
59KRJKhurja Junction (4)  03:24-03:25-1m--42048.933199mNCRBulandshahr, Uttar Pradesh
60GZBGhaziabad Junction (6)XO  05:18-05:20-2m--42111.627217mNRGhaziabad, Uttar Pradesh
61DLI•Old Delhi Junction (16)•  06:05--542131.7-219mNRNear Chandni Chowk Metro Station, Delhi NCT
Scroll to Top
Scroll to Bottom